| time (UTC) | temp C | wind direction | speed KPH | gust KPH | rain 1hr cm | rain 24hr cm | rain mn cm | humidity % | barometer mb |
| 20260503173620 | 17 | 322 | 4.8 | 4.8 | 0.00 | 0.00 | 0.00 | 52 | 3412.5 |
| 20260503173117 | 17 | 163 | 3.2 | 4.8 | 0.00 | 0.00 | 0.00 | 50 | 3412.5 |
| 20260503172614 | 16 | 239 | 1.6 | 3.2 | 0.00 | 0.00 | 0.00 | 52 | 3412.7 |
| 20260503172112 | 16 | 154 | 1.6 | 4.8 | 0.00 | 0.00 | 0.00 | 50 | 3412.7 |
| 20260503171608 | 16 | 87 | 1.6 | 3.2 | 0.00 | 0.00 | 0.00 | 53 | 3413.0 |
| 20260503171105 | 16 | 169 | 3.2 | 4.8 | 0.00 | 0.00 | 0.00 | 51 | 3412.9 |
| 20260503170601 | 16 | 118 | 1.6 | 3.2 | 0.00 | 0.00 | 0.00 | 53 | 3413.0 |
| 20260503150948 | 13 | 134 | 0.0 | 0.0 | 0.00 | 0.00 | 0.00 | 69 | 3413.9 |
| 20260503150445 | 13 | 107 | 0.0 | 0.0 | 0.00 | 0.00 | 0.00 | 71 | 3414.0 |
| 20260503131338 | 7 | 52 | 0.0 | 0.0 | 0.00 | 0.00 | 0.00 | 99 | 3414.0 |
| 20260503130835 | 6 | 53 | 0.0 | 0.0 | 0.00 | 0.00 | 0.00 | 99 | 3413.8 |
| 20260503130333 | 6 | 50 | 0.0 | 0.0 | 0.00 | 0.00 | 0.00 | 99 | 3414.0 |
| 20260503110721 | 1 | 35 | 0.0 | 0.0 | 0.00 | 0.00 | 0.00 | 99 | 3413.3 |
| 20260503110218 | 1 | 35 | 0.0 | 0.0 | 0.00 | 0.00 | 0.00 | 99 | 3413.3 |
| 20260503100138 | 2 | 35 | 0.0 | 0.0 | 0.00 | 0.00 | 0.00 | 99 | 3413.0 |
| 20260503081527 | 2 | 35 | 0.0 | 0.0 | 0.00 | 0.00 | 0.00 | 99 | 3412.9 |
| 20260503081025 | 2 | 35 | 0.0 | 0.0 | 0.00 | 0.00 | 0.00 | 99 | 3413.2 |
| 20260503080520 | 2 | 35 | 0.0 | 0.0 | 0.00 | 0.00 | 0.00 | 99 | 3413.0 |
| 20260503072454 | 3 | 34 | 0.0 | 0.0 | 0.00 | 0.00 | 0.00 | 99 | 3412.9 |
| 20260503071951 | 3 | 34 | 0.0 | 0.0 | 0.00 | 0.00 | 0.00 | 99 | 3413.1 |
| 20260503071448 | 3 | 34 | 0.0 | 0.0 | 0.00 | 0.00 | 0.00 | 99 | 3412.9 |
| 20260503070944 | 3 | 34 | 0.0 | 0.0 | 0.00 | 0.00 | 0.00 | 99 | 3412.8 |
| 20260503070441 | 3 | 34 | 0.0 | 0.0 | 0.00 | 0.00 | 0.00 | 99 | 3412.8 |
| 20260503054854 | 4 | 34 | 0.0 | 0.0 | 0.00 | 0.00 | 0.00 | 99 | 3412.9 |
| 20260503054350 | 4 | 34 | 0.0 | 0.0 | 0.00 | 0.00 | 0.00 | 99 | 3413.0 |
| 20260503053849 | 4 | 34 | 0.0 | 0.0 | 0.00 | 0.00 | 0.00 | 99 | 3412.9 |
| 20260503053347 | 4 | 34 | 0.0 | 0.0 | 0.00 | 0.00 | 0.00 | 99 | 3412.9 |
| 20260503052842 | 4 | 34 | 0.0 | 0.0 | 0.00 | 0.00 | 0.00 | 99 | 3412.9 |
| 20260503052340 | 4 | 34 | 0.0 | 0.0 | 0.00 | 0.00 | 0.00 | 99 | 3412.9 |
| 20260503051836 | 5 | 34 | 0.0 | 0.0 | 0.00 | 0.00 | 0.00 | 99 | 3412.8 |
| 20260503051332 | 5 | 34 | 0.0 | 0.0 | 0.00 | 0.00 | 0.00 | 99 | 3412.7 |
| 20260503050829 | 5 | 34 | 0.0 | 0.0 | 0.00 | 0.00 | 0.00 | 99 | 3412.7 |
| 20260503050325 | 5 | 34 | 0.0 | 0.0 | 0.00 | 0.00 | 0.00 | 99 | 3412.9 |
| 20260503045823 | 5 | 34 | 0.0 | 0.0 | 0.00 | 0.20 | 0.20 | 99 | 3412.8 |
| 20260503045321 | 5 | 34 | 0.0 | 0.0 | 0.00 | 0.20 | 0.20 | 99 | 3412.7 |
| 20260503044817 | 5 | 34 | 0.0 | 0.0 | 0.00 | 0.20 | 0.20 | 99 | 3412.6 |
| 20260503044314 | 5 | 34 | 0.0 | 0.0 | 0.00 | 0.20 | 0.20 | 99 | 3412.7 |
| 20260503043811 | 5 | 34 | 0.0 | 0.0 | 0.00 | 0.20 | 0.20 | 99 | 3412.9 |
| 20260503043308 | 5 | 34 | 0.0 | 0.0 | 0.00 | 0.20 | 0.20 | 99 | 3412.5 |
| 20260503042804 | 5 | 34 | 0.0 | 0.0 | 0.00 | 0.20 | 0.20 | 99 | 3412.8 |
| 20260503042301 | 5 | 34 | 0.0 | 0.0 | 0.00 | 0.20 | 0.20 | 99 | 3412.6 |
| 20260503041756 | 6 | 34 | 0.0 | 0.0 | 0.00 | 0.20 | 0.20 | 99 | 3412.7 |
| 20260503041255 | 6 | 34 | 0.0 | 0.0 | 0.00 | 0.20 | 0.20 | 99 | 3412.7 |
| 20260503040752 | 6 | 34 | 0.0 | 0.0 | 0.00 | 0.20 | 0.20 | 99 | 3412.5 |
| 20260503040249 | 6 | 34 | 0.0 | 0.0 | 0.00 | 0.20 | 0.20 | 99 | 3412.6 |
| 20260503035746 | 6 | 34 | 0.0 | 0.0 | 0.00 | 0.20 | 0.20 | 99 | 3412.4 |
| 20260503035243 | 6 | 34 | 0.0 | 0.0 | 0.00 | 0.20 | 0.20 | 99 | 3412.5 |
| 20260503034741 | 6 | 34 | 0.0 | 0.0 | 0.00 | 0.20 | 0.20 | 99 | 3412.5 |
| 20260503034238 | 6 | 34 | 0.0 | 0.0 | 0.00 | 0.20 | 0.20 | 99 | 3412.5 |
| 20260503033735 | 6 | 34 | 0.0 | 0.0 | 0.00 | 0.20 | 0.20 | 99 | 3412.4 |
| 20260503033232 | 6 | 34 | 0.0 | 0.0 | 0.00 | 0.20 | 0.20 | 99 | 3412.6 |
| 20260503032731 | 6 | 34 | 0.0 | 0.0 | 0.00 | 0.20 | 0.20 | 99 | 3412.6 |
| 20260503032229 | 6 | 34 | 0.0 | 0.0 | 0.00 | 0.20 | 0.20 | 99 | 3412.4 |
| 20260503031725 | 6 | 34 | 0.0 | 0.0 | 0.00 | 0.20 | 0.20 | 99 | 3412.4 |
| 20260503031224 | 6 | 34 | 0.0 | 0.0 | 0.00 | 0.20 | 0.20 | 99 | 3412.3 |
| 20260503030720 | 6 | 34 | 0.0 | 0.0 | 0.00 | 0.20 | 0.20 | 99 | 3412.3 |
| 20260503030216 | 6 | 34 | 0.0 | 0.0 | 0.00 | 0.20 | 0.20 | 99 | 3412.3 |
| 20260503025713 | 7 | 34 | 0.0 | 0.0 | 0.00 | 0.20 | 0.20 | 99 | 3412.3 |
| 20260503025206 | 7 | 34 | 0.0 | 0.0 | 0.00 | 0.20 | 0.20 | 99 | 3412.2 |
| 20260503024702 | 7 | 34 | 0.0 | 0.0 | 0.00 | 0.20 | 0.20 | 99 | 3412.2 |
| 20260503024159 | 7 | 34 | 0.0 | 0.0 | 0.00 | 0.20 | 0.20 | 99 | 3412.3 |
| 20260503023656 | 7 | 34 | 0.0 | 0.0 | 0.00 | 0.20 | 0.20 | 99 | 3412.2 |
| 20260503023152 | 7 | 34 | 0.0 | 0.0 | 0.00 | 0.20 | 0.20 | 99 | 3412.2 |
| 20260503022649 | 7 | 34 | 0.0 | 0.0 | 0.00 | 0.20 | 0.20 | 99 | 3411.9 |
| 20260503022148 | 7 | 34 | 0.0 | 0.0 | 0.00 | 0.20 | 0.20 | 99 | 3412.2 |
| 20260503021645 | 7 | 34 | 0.0 | 0.0 | 0.00 | 0.20 | 0.20 | 99 | 3412.1 |
| 20260503021142 | 8 | 34 | 0.0 | 0.0 | 0.00 | 0.20 | 0.20 | 99 | 3411.9 |
| 20260503020639 | 8 | 34 | 0.0 | 0.0 | 0.00 | 0.20 | 0.20 | 99 | 3411.9 |
| 20260503020137 | 8 | 34 | 0.0 | 0.0 | 0.00 | 0.20 | 0.20 | 99 | 3411.7 |
| 20260503015633 | 8 | 34 | 0.0 | 0.0 | 0.00 | 0.20 | 0.20 | 99 | 3411.7 |
| 20260503015130 | 8 | 34 | 0.0 | 0.0 | 0.00 | 0.20 | 0.20 | 99 | 3411.7 |
| 20260503014626 | 8 | 34 | 0.0 | 0.0 | 0.00 | 0.20 | 0.20 | 99 | 3411.6 |
| 20260503014124 | 8 | 34 | 0.0 | 0.0 | 0.00 | 0.20 | 0.20 | 99 | 3411.7 |
| 20260503013621 | 8 | 34 | 0.0 | 0.0 | 0.00 | 0.20 | 0.20 | 98 | 3411.7 |
| 20260503013119 | 8 | 34 | 0.0 | 0.0 | 0.00 | 0.20 | 0.20 | 98 | 3411.7 |
| 20260503012616 | 8 | 34 | 0.0 | 0.0 | 0.00 | 0.20 | 0.20 | 98 | 3411.4 |
| 20260503012113 | 8 | 34 | 0.0 | 0.0 | 0.00 | 0.20 | 0.20 | 98 | 3411.5 |
| 20260503011610 | 8 | 34 | 0.0 | 0.0 | 0.00 | 0.20 | 0.20 | 98 | 3411.3 |
| 20260503011107 | 8 | 34 | 0.0 | 0.0 | 0.00 | 0.20 | 0.20 | 97 | 3411.3 |
| 20260503010603 | 8 | 34 | 0.0 | 0.0 | 0.00 | 0.20 | 0.20 | 97 | 3411.0 |
| 20260503010100 | 8 | 34 | 0.0 | 0.0 | 0.00 | 0.20 | 0.20 | 97 | 3411.3 |
| 20260503005557 | 8 | 34 | 0.0 | 0.0 | 0.00 | 0.20 | 0.20 | 97 | 3411.0 |
| 20260503005055 | 8 | 34 | 0.0 | 0.0 | 0.00 | 0.20 | 0.20 | 96 | 3411.1 |
| 20260503004550 | 9 | 34 | 0.0 | 0.0 | 0.00 | 0.20 | 0.20 | 96 | 3411.1 |
| 20260503004049 | 9 | 34 | 0.0 | 0.0 | 0.00 | 0.20 | 0.20 | 95 | 3411.1 |
| 20260503003545 | 9 | 34 | 1.6 | 3.2 | 0.00 | 0.20 | 0.20 | 95 | 3410.9 |
| 20260503003042 | 9 | 34 | 0.0 | 0.0 | 0.00 | 0.20 | 0.20 | 94 | 3410.9 |
| 20260503002539 | 10 | 34 | 0.0 | 0.0 | 0.00 | 0.20 | 0.20 | 93 | 3411.0 |
| 20260503002036 | 10 | 34 | 0.0 | 0.0 | 0.00 | 0.20 | 0.20 | 92 | 3411.0 |
| 20260503001532 | 10 | 34 | 0.0 | 0.0 | 0.00 | 0.20 | 0.20 | 92 | 3410.9 |
| 20260503001031 | 10 | 34 | 0.0 | 0.0 | 0.00 | 0.20 | 0.20 | 90 | 3410.5 |
| 20260503000527 | 10 | 34 | 0.0 | 0.0 | 0.00 | 0.20 | 0.20 | 88 | 3410.7 |
| 20260503000024 | 10 | 34 | 0.0 | 0.0 | 0.00 | 0.20 | 0.20 | 86 | 3410.8 |
| 20260502235520 | 10 | 31 | 0.0 | 0.0 | 0.00 | 0.20 | 0.20 | 83 | 3410.7 |
| 20260502235019 | 10 | 208 | 0.0 | 3.2 | 0.00 | 0.20 | 0.20 | 85 | 3410.9 |
| 20260502234514 | 10 | 208 | 0.0 | 0.0 | 0.00 | 0.20 | 0.20 | 83 | 3410.5 |
| 20260502234012 | 10 | 241 | 3.2 | 4.8 | 0.00 | 0.20 | 0.20 | 85 | 3410.3 |
| 20260502233512 | 10 | 49 | 0.0 | 3.2 | 0.00 | 0.20 | 0.20 | 89 | 3410.5 |
| 20260502233010 | 10 | 353 | 1.6 | 3.2 | 0.00 | 0.20 | 0.20 | 92 | 3410.5 |
| 20260502232506 | 10 | 51 | 0.0 | 0.0 | 0.00 | 0.20 | 0.20 | 94 | 3410.6 |
| 20260502232003 | 10 | 50 | 0.0 | 3.2 | 0.00 | 0.20 | 0.20 | 96 | 3410.6 |
| 20260502231500 | 10 | 89 | 0.0 | 0.0 | 0.00 | 0.20 | 0.20 | 97 | 3410.5 |
| 20260502230958 | 10 | 176 | 0.0 | 3.2 | 0.00 | 0.20 | 0.20 | 98 | 3410.5 |
| 20260502230456 | 10 | 148 | 1.6 | 3.2 | 0.00 | 0.20 | 0.20 | 99 | 3410.4 |
| 20260502225954 | 10 | 46 | 0.0 | 0.0 | 0.00 | 0.20 | 0.20 | 99 | 3410.7 |
| 20260502225450 | 10 | 39 | 0.0 | 0.0 | 0.00 | 0.20 | 0.20 | 99 | 3410.4 |
| 20260502224947 | 10 | 38 | 0.0 | 0.0 | 0.00 | 0.20 | 0.20 | 99 | 3410.3 |
| 20260502224443 | 10 | 44 | 0.0 | 0.0 | 0.00 | 0.20 | 0.20 | 99 | 3410.4 |
| 20260502223940 | 10 | 44 | 0.0 | 0.0 | 0.00 | 0.20 | 0.20 | 99 | 3410.4 |
| 20260502223438 | 10 | 55 | 0.0 | 0.0 | 0.00 | 0.20 | 0.20 | 99 | 3410.5 |
| 20260502222936 | 10 | 57 | 0.0 | 0.0 | 0.00 | 0.20 | 0.20 | 99 | 3410.4 |
| 20260502222433 | 10 | 56 | 0.0 | 0.0 | 0.00 | 0.20 | 0.20 | 99 | 3410.5 |
| 20260502221928 | 10 | 44 | 0.0 | 0.0 | 0.00 | 0.20 | 0.20 | 99 | 3410.5 |
| 20260502221425 | 10 | 44 | 0.0 | 0.0 | 0.00 | 0.20 | 0.20 | 99 | 3410.3 |
| 20260502220922 | 10 | 44 | 0.0 | 0.0 | 0.00 | 0.20 | 0.20 | 99 | 3410.5 |
| 20260502220418 | 10 | 44 | 0.0 | 0.0 | 0.00 | 0.20 | 0.20 | 99 | 3410.4 |
| 20260502215914 | 10 | 44 | 0.0 | 0.0 | 0.00 | 0.20 | 0.20 | 99 | 3410.5 |
| 20260502215412 | 10 | 44 | 0.0 | 0.0 | 0.00 | 0.20 | 0.20 | 99 | 3410.3 |
| 20260502214909 | 10 | 44 | 0.0 | 0.0 | 0.00 | 0.20 | 0.20 | 98 | 3410.3 |
| 20260502214405 | 10 | 44 | 0.0 | 0.0 | 0.00 | 0.20 | 0.20 | 98 | 3410.3 |
| 20260502213903 | 10 | 43 | 0.0 | 0.0 | 0.00 | 0.20 | 0.20 | 98 | 3410.4 |
| 20260502213359 | 10 | 57 | 0.0 | 3.2 | 0.00 | 0.20 | 0.20 | 98 | 3410.0 |
| 20260502212859 | 10 | 71 | 0.0 | 0.0 | 0.18 | 0.20 | 0.20 | 98 | 3410.4 |
| 20260502212356 | 10 | 59 | 0.0 | 0.0 | 0.18 | 0.20 | 0.20 | 98 | 3410.3 |
| 20260502211853 | 10 | 20 | 3.2 | 3.2 | 0.00 | 0.18 | 0.18 | 98 | 3410.2 |
| 20260502211349 | 10 | 53 | 0.0 | 0.0 | 0.13 | 0.18 | 0.18 | 98 | 3410.2 |
| 20260502210847 | 10 | 48 | 0.0 | 0.0 | 0.13 | 0.18 | 0.18 | 98 | 3410.5 |
| 20260502210344 | 10 | 30 | 0.0 | 0.0 | 0.00 | 0.15 | 0.15 | 97 | 3410.2 |
| 20260502205841 | 10 | 50 | 0.0 | 3.2 | 0.00 | 0.15 | 0.15 | 97 | 3410.3 |
| 20260502205337 | 10 | 54 | 0.0 | 0.0 | 0.00 | 0.15 | 0.15 | 96 | 3410.3 |
| 20260502204834 | 10 | 54 | 0.0 | 0.0 | 0.00 | 0.15 | 0.15 | 96 | 3410.1 |
| 20260502204331 | 10 | 54 | 0.0 | 0.0 | 0.00 | 0.15 | 0.15 | 95 | 3410.2 |
| 20260502203829 | 10 | 60 | 0.0 | 0.0 | 0.30 | 0.15 | 0.15 | 93 | 3410.2 |
| 20260502203326 | 10 | 58 | 0.0 | 0.0 | 0.48 | 0.15 | 0.15 | 92 | 3410.2 |
| 20260502202826 | 10 | 354 | 3.2 | 4.8 | 0.30 | 0.10 | 0.10 | 91 | 3410.2 |
| 20260502202324 | 11 | 58 | 0.0 | 0.0 | 0.30 | 0.08 | 0.08 | 89 | 3410.0 |
| 20260502201822 | 11 | 334 | 3.2 | 4.8 | 0.18 | 0.05 | 0.05 | 86 | 3410.2 |
| 20260502201318 | 11 | 199 | 3.2 | 4.8 | 0.30 | 0.05 | 0.05 | 82 | 3410.2 |
| 20260502200814 | 12 | 105 | 0.0 | 3.2 | 0.13 | 0.03 | 0.03 | 79 | 3410.1 |
| 20260502200310 | 12 | 82 | 0.0 | 0.0 | 0.00 | 0.00 | 0.00 | 75 | 3410.1 |
| 20260502195808 | 12 | 98 | 0.0 | 0.0 | 0.00 | 0.00 | 0.00 | 72 | 3410.1 |
| 20260502195305 | 12 | 117 | 3.2 | 4.8 | 0.00 | 0.00 | 0.00 | 71 | 3409.9 |
| 20260502194801 | 13 | 126 | 1.6 | 3.2 | 0.00 | 0.00 | 0.00 | 70 | 3410.0 |
| 20260502194259 | 13 | 175 | 4.8 | 8.0 | 0.00 | 0.00 | 0.00 | 68 | 3409.8 |
| 20260502193754 | 13 | 135 | 0.0 | 0.0 | 0.00 | 0.00 | 0.00 | 69 | 3409.6 |
| 20260502193252 | 13 | 140 | 1.6 | 4.8 | 0.00 | 0.00 | 0.00 | 68 | 3409.8 |
| 20260502192751 | 14 | 74 | 0.0 | 3.2 | 0.00 | 0.00 | 0.00 | 67 | 3409.5 |
| 20260502192249 | 14 | 60 | 0.0 | 0.0 | 0.00 | 0.00 | 0.00 | 65 | 3409.5 |
| 20260502191745 | 15 | 84 | 0.0 | 3.2 | 0.00 | 0.00 | 0.00 | 65 | 3409.7 |
| 20260502191244 | 15 | 113 | 0.0 | 0.0 | 0.00 | 0.00 | 0.00 | 66 | 3409.6 |
| 20260502190741 | 15 | 109 | 0.0 | 0.0 | 0.00 | 0.00 | 0.00 | 65 | 3409.6 |
| 20260502190239 | 15 | 60 | 1.6 | 3.2 | 0.00 | 0.00 | 0.00 | 61 | 3409.6 |
| 20260502185738 | 16 | 152 | 1.6 | 4.8 | 0.00 | 0.00 | 0.00 | 62 | 3409.8 |
| 20260502185235 | 16 | 91 | 1.6 | 3.2 | 0.00 | 0.00 | 0.00 | 62 | 3409.6 |
| 20260502184731 | 16 | 66 | 1.6 | 3.2 | 0.00 | 0.00 | 0.00 | 65 | 3409.6 |
| 20260502184227 | 15 | 115 | 1.6 | 3.2 | 0.00 | 0.00 | 0.00 | 66 | 3409.6 |
| 20260502183724 | 14 | 139 | 4.8 | 4.8 | 0.00 | 0.00 | 0.00 | 68 | 3409.6 |
| 20260502183220 | 14 | 14 | 0.0 | 0.0 | 0.00 | 0.00 | 0.00 | 65 | 3409.9 |
| 20260502182716 | 15 | 161 | 3.2 | 4.8 | 0.00 | 0.00 | 0.00 | 63 | 3409.8 |
| 20260502182211 | 15 | 68 | 1.6 | 3.2 | 0.00 | 0.00 | 0.00 | 61 | 3409.7 |
| 20260502181709 | 16 | 335 | 1.6 | 3.2 | 0.00 | 0.00 | 0.00 | 57 | 3409.5 |
| 20260502181208 | 16 | 270 | 1.6 | 3.2 | 0.00 | 0.00 | 0.00 | 57 | 3409.6 |
| 20260502180704 | 17 | 59 | 0.0 | 0.0 | 0.00 | 0.00 | 0.00 | 57 | 3409.6 |
| 20260502180202 | 16 | 337 | 3.2 | 4.8 | 0.00 | 0.00 | 0.00 | 63 | 3409.6 |